Weather History for KMGC - June, 2012

Change the Weather History Date:

Sunday, June 17, 2012

  Actual Average (KVPZ) Record (KVPZ)
Temperature  
Mean Temperature 73 °F 70 °F  
Max Temperature 82 °F 80 °F 91 °F (2007)
Min Temperature 62 °F 59 °F 47 °F (1999)
Cooling Degree Days 8 6  
Month to date cooling degree days 74  
Year to date cooling degree days 121  
Since 1 June cooling degree days 74  
Growing Degree Days 23 (Base 50)    
Moisture  
Dew Point 61 °F    
Average Humidity 74    
Maximum Humidity 100    
Minimum Humidity 34    
Precipitation  
Precipitation 0.00 in 0.11 in 0.43 in (2012)
Month to date precipitation 2.20  
Year to date precipitation 15.18  
Sea Level Pressure  
Sea Level Pressure 29.89 in    
Wind  
Wind Speed 5 mph ()    
Max Wind Speed 15 mph    
Max Gust Speed 25 mph    
Visibility 9.7 miles    
Events Rain    
T = Trace of Precipitation, MM = Missing Value Source: Averaged Metar Reports

Daily Weather History Graph

Daily Weather History Graph

Search for Another Location

Airport or City:

Trip Planner

Search our weather history database for the weather conditions in past years. The results will help you decide how hot, cold, wet, or windy it might be!

Date:

Astronomy

Jun. 17, 2012 Rise Set
Actual Time 5:12 AM CDT 8:24 PM CDT
Civil Twilight 4:38 AM CDT 8:58 PM CDT
Nautical Twilight 3:54 AM CDT 9:42 PM CDT
Astronomical Twilight 3:01 AM CDT 10:35 PM CDT
Moon 3:42 AM CDT (6/17) 6:52 PM CDT (6/17)
Length of Visible Light 16h 20m
Length of Day
15h 12m
Waning Crescent, 3% of the Moon is Illuminated
Jun 17
Waning Crescent
Jun 19
New
Jun 26
First Quarter
Jul 3
Full
Jul 10
Last Quarter

Hourly Weather History & Observations

Time (CDT) Temp. Heat Index Dew Point Humidity Pressure Visibility Wind Dir Wind Speed Gust Speed Precip Events Conditions
12:15 AM 64.4 °F - 62.6 °F 94% 29.97 in 10.0 mi South 8.1 mph - N/A Rain Rain
12:35 AM 64.4 °F - 62.6 °F 94% 29.99 in 4.0 mi South 15.0 mph 25.3 mph N/A Rain Heavy Rain
12:55 AM 64.4 °F - 62.6 °F 94% 29.99 in 5.0 mi South 9.2 mph - N/A Rain Heavy Rain
1:15 AM 64.4 °F - 62.6 °F 94% 29.97 in 7.0 mi South 9.2 mph - N/A Rain Rain
1:35 AM 64.4 °F - 64.4 °F 100% 29.98 in 10.0 mi SSW 9.2 mph - N/A Rain Rain
1:55 AM 64.4 °F - 64.4 °F 100% 29.98 in 7.0 mi SW 8.1 mph - N/A Rain Rain
2:15 AM 64.4 °F - 64.4 °F 100% 29.97 in 7.0 mi SSW 3.5 mph - N/A Rain Rain
2:35 AM 64.4 °F - 64.4 °F 100% 29.95 in 10.0 mi Calm Calm - N/A Rain Light Rain
2:55 AM 64.4 °F - 64.4 °F 100% 29.95 in 10.0 mi Calm Calm - N/A Rain Light Rain
3:15 AM 64.4 °F - 64.4 °F 100% 29.94 in 10.0 mi SSW 5.8 mph - N/A Rain Rain
3:35 AM 64.4 °F - 64.4 °F 100% 29.91 in 10.0 mi Calm Calm - N/A Rain Light Rain
3:55 AM 64.4 °F - 64.4 °F 100% 29.89 in 10.0 mi Calm Calm - N/A Rain Rain
4:15 AM 64.4 °F - 64.4 °F 100% 29.87 in 10.0 mi Calm Calm - N/A Rain Light Rain
4:35 AM 64.4 °F - 64.4 °F 100% 29.87 in 10.0 mi WSW 4.6 mph - N/A   Light Drizzle
4:55 AM 64.4 °F - 64.4 °F 100% 29.89 in 10.0 mi Calm Calm - N/A   Overcast
5:15 AM 64.4 °F - 64.4 °F 100% 29.88 in 10.0 mi South 4.6 mph - N/A   Overcast
5:35 AM 64.4 °F - 64.4 °F 100% 29.89 in 10.0 mi Calm Calm - N/A Rain Light Rain
5:55 AM 64.4 °F - 64.4 °F 100% 29.89 in 10.0 mi South 5.8 mph - N/A   Overcast
6:15 AM 66.2 °F - 64.4 °F 94% 29.89 in 10.0 mi SSW 5.8 mph - N/A   Overcast
6:35 AM 66.2 °F - 64.4 °F 94% 29.90 in 10.0 mi SSW 5.8 mph - N/A   Overcast
6:55 AM 66.2 °F - 64.4 °F 94% 29.89 in 10.0 mi SSW 4.6 mph - N/A   Overcast
7:15 AM 68.0 °F - 66.2 °F 94% 29.90 in 10.0 mi SSW 4.6 mph - N/A   Overcast
7:35 AM 68.0 °F - 66.2 °F 94% 29.90 in 10.0 mi SSW 5.8 mph - N/A   Overcast
7:55 AM 68.0 °F - 66.2 °F 94% 29.90 in 10.0 mi SSW 6.9 mph - N/A   Overcast
8:15 AM 68.0 °F - 66.2 °F 94% 29.91 in 10.0 mi SW 5.8 mph - N/A   Overcast
8:35 AM 68.0 °F - 66.2 °F 94% 29.91 in 10.0 mi WSW 3.5 mph - N/A   Overcast
8:55 AM 69.8 °F - 68.0 °F 94% 29.92 in 10.0 mi WSW 5.8 mph - N/A   Overcast
9:15 AM 69.8 °F - 68.0 °F 94% 29.92 in 10.0 mi WSW 5.8 mph - N/A   Overcast
9:35 AM 69.8 °F - 68.0 °F 94% 29.92 in 10.0 mi West 5.8 mph - N/A   Overcast
10:15 AM 71.6 °F - 68.0 °F 88% 29.93 in 10.0 mi West 5.8 mph - N/A   Overcast
10:35 AM 73.4 °F - 68.0 °F 83% 29.92 in 10.0 mi WNW 6.9 mph - N/A   Overcast
10:55 AM 73.4 °F - 68.0 °F 83% 29.92 in 10.0 mi West 8.1 mph - N/A   Overcast
11:15 AM 73.4 °F - 66.2 °F 78% 29.92 in 10.0 mi WNW 8.1 mph - N/A   Mostly Cloudy
11:35 AM 75.2 °F - 66.2 °F 73% 29.92 in 10.0 mi NW 8.1 mph - N/A   Clear
11:55 AM 77.0 °F - 62.6 °F 61% 29.92 in 10.0 mi West 8.1 mph - N/A   Scattered Clouds
12:15 PM 77.0 °F - 60.8 °F 57% 29.92 in 10.0 mi WNW 4.6 mph - N/A   Scattered Clouds
12:35 PM 77.0 °F - 60.8 °F 57% 29.92 in 10.0 mi West 5.8 mph - N/A   Scattered Clouds
12:55 PM 77.0 °F - 53.6 °F 44% 29.92 in 10.0 mi WNW 4.6 mph - N/A   Scattered Clouds
1:15 PM 77.0 °F - 55.4 °F 47% 29.91 in 10.0 mi WNW 5.8 mph - N/A   Scattered Clouds
1:35 PM 77.0 °F - 53.6 °F 44% 29.91 in 10.0 mi North 4.6 mph - N/A   Clear
1:55 PM 77.0 °F - 50.0 °F 39% 29.90 in 10.0 mi North 4.6 mph - N/A   Clear
2:15 PM 78.8 °F - 48.2 °F 34% 29.89 in 10.0 mi NNE 5.8 mph - N/A   Clear
2:35 PM 78.8 °F - 50.0 °F 36% 29.88 in 10.0 mi NE 5.8 mph - N/A   Clear
2:55 PM 78.8 °F - 48.2 °F 34% 29.88 in 10.0 mi Calm Calm - N/A   Clear
3:15 PM 78.8 °F - 50.0 °F 36% 29.87 in 10.0 mi Calm Calm - N/A   Clear
3:35 PM 80.6 °F - 51.8 °F 37% 29.87 in 10.0 mi Calm Calm - N/A   Clear
3:55 PM 80.6 °F - 51.8 °F 37% 29.87 in 10.0 mi WSW 5.8 mph - N/A   Clear
4:15 PM 82.4 °F 81.4 °F 53.6 °F 37% 29.86 in 10.0 mi SW 6.9 mph - N/A   Clear
4:35 PM 82.4 °F 81.4 °F 53.6 °F 37% 29.85 in 10.0 mi SW 8.1 mph - N/A   Clear
4:55 PM 82.4 °F 81.4 °F 53.6 °F 37% 29.85 in 10.0 mi SW 8.1 mph - N/A   Clear
5:15 PM 80.6 °F 80.3 °F 53.6 °F 39% 29.85 in 10.0 mi South 4.6 mph - N/A   Clear
5:35 PM 80.6 °F 81.1 °F 59.0 °F 48% 29.84 in 10.0 mi South 5.8 mph - N/A   Clear
5:55 PM 80.6 °F 81.5 °F 60.8 °F 51% 29.84 in 10.0 mi SSW 5.8 mph - N/A   Clear
6:15 PM 80.6 °F 80.8 °F 57.2 °F 45% 29.85 in 10.0 mi SW 8.1 mph - N/A   Clear
6:35 PM 80.6 °F 81.1 °F 59.0 °F 48% 29.85 in 10.0 mi SW 8.1 mph - N/A   Clear
6:55 PM 80.6 °F 80.8 °F 57.2 °F 45% 29.85 in 10.0 mi WSW 6.9 mph - N/A   Clear
7:15 PM 78.8 °F - 57.2 °F 47% 29.86 in 10.0 mi SW 9.2 mph - N/A   Clear
7:35 PM 77.0 °F - 59.0 °F 54% 29.86 in 10.0 mi SSW 5.8 mph - N/A   Clear
7:55 PM 73.4 °F - 59.0 °F 61% 29.86 in 10.0 mi SSW 3.5 mph - N/A   Clear
8:15 PM 73.4 °F - 59.0 °F 61% 29.86 in 10.0 mi Calm Calm - N/A   Clear
8:35 PM 71.6 °F - 59.0 °F 64% 29.86 in 10.0 mi Calm Calm - N/A   Clear
8:55 PM 71.6 °F - 59.0 °F 64% 29.85 in 10.0 mi Calm Calm - N/A   Clear
9:15 PM 71.6 °F - 59.0 °F 64% 29.85 in 10.0 mi Calm Calm - N/A   Clear
9:35 PM 69.8 °F - 59.0 °F 68% 29.86 in 10.0 mi Calm Calm - N/A   Clear
9:55 PM 68.0 °F - 60.8 °F 78% 29.85 in 10.0 mi Calm Calm - N/A   Clear
10:15 PM 68.0 °F - 60.8 °F 78% 29.85 in 10.0 mi Calm Calm - N/A   Clear
10:35 PM 68.0 °F - 60.8 °F 78% 29.85 in 10.0 mi Calm Calm - N/A   Clear
10:55 PM 68.0 °F - 60.8 °F 78% 29.83 in 10.0 mi Calm Calm - N/A   Clear
11:15 PM 64.4 °F - 60.8 °F 88% 29.83 in 10.0 mi Calm Calm - N/A   Clear
11:35 PM 64.4 °F - 60.8 °F 88% 29.83 in 10.0 mi Calm Calm - N/A   Clear
11:55 PM 62.6 °F - 60.8 °F 94% 29.83 in 10.0 mi Calm Calm - N/A   Clear